CAPE
0 0 0 0 0 0 0 0 0 0 0 0 0 0 0 0 0 0 0 20 99 131 78 40 64 159 177
0 1 0 0 0 0 0 0 0 0 0 0 0 0 0 0 0 0 0 17 111 107 59 63 238 254 180
4 1 0 0 0 0 0 0 0 0 0 0 0 0 0 0 0 0 0 2 66 87 44 9 114 63 66
6 5 5 0 0 0 0 0 1 0 0 0 0 0 0 0 0 0 0 0 41 30 0 0 2 3 1
7 5 3 1 0 0 0 0 0 0 0 0 0 0 0 0 0 0 0 0 29 1 0 0 0 0 0
2 3 4 2 0 0 1 0 0 0 0 0 0 0 0 0 0 0 0 0 0 0 0 0 0 0 0
0 0 0 0 0 0 0 0 2 0 0 0 0 0 0 0 4 0 0 0 0 0 0 0 0 0 0
5 0 0 0 0 0 0 0 0 0 2 0 0 4 0 0 0 2 0 0 0 2 0 0 0 0 0
1 0 7 4 0 0 1 1 1 1 0 0 0 2 0 0 0 0 0 0 1 0 0 1 0 0 0
0 5 10 6 5 9 0 3 4 2 2 14 0 0 1 0 0 0 0 0 1 0 1 1 2 1 0
0 0 0 2 8 15 16 2 2 3 0 0 0 0 0 0 0 0 0 0 1 2 3 1 1 0 1
6 0 0 0 0 1 2 20 12 0 1 9 0 1 1 0 0 0 0 0 0 1 2 2 3 4 3
1 0 0 0 0 0 0 0 0 0 0 0 0 0 0 1 1 0 0 0 0 1 3 3 4 4 3
0 0 0 0 0 0 0 0 2 1 0 0 0 1 0 1 0 1 0 0 1 1 4 3 1 2 4
0 0 0 0 0 0 0 0 2 1 0 0 0 0 2 0 0 0 0 1 1 0 2 3 2 3 3
1 0 1 0 1 1 1 0 1 0 1 0 0 0 0 0 0 0 1 2 1 0 0 2 2 1 1
0 1 0 0 1 1 1 1 4 4 0 0 0 3 0 0 0 0 1 1 1 0 0 2 2 0 0
CIN
-2 -1 0 0 0 0 0 0 0 0 0 0 0 0 0 0 0 0 0 -28 -6 -10 -14 -27 -14 -16 -10
-1 -2 0 0 0 0 0 0 0 0 0 0 0 0 0 0 0 0 0 -38 -7 -5 -21 -13 -1 -3 -16
0 0 0 0 0 0 0 0 0 0 0 0 0 0 0 0 0 0 0 -8 -11 -4 -7 -20 -4 -9 -16
0 0 -1 -2 -1 -1 0 0 -1 0 0 0 0 0 0 0 0 0 0 0 -10 -16 0 0 -8 -15 0
0 0 0 -1 0 0 0 0 0 0 0 0 0 0 0 0 0 0 0 0 -7 -2 0 0 0 0 0
0 0 -1 -2 0 -1 -1 -1 0 0 0 0 0 0 0 0 0 0 0 0 0 0 0 0 0 0 0
0 0 0 0 0 0 0 -1 0 0 0 0 -1 0 0 0 -2 0 0 0 0 0 0 0 0 0 0
-3 0 0 0 0 0 0 0 0 0 -1 0 0 -1 0 0 0 -5 0 0 0 0 0 0 0 0 0
-4 -3 -1 -1 -2 0 0 -1 -1 -1 0 0 0 -1 0 0 0 0 0 0 0 0 0 0 0 0 0
0 -2 -2 -4 0 0 -1 0 0 0 -2 0 0 0 -2 0 0 0 0 0 0 0 0 0 0 0 0
0 0 0 0 0 0 0 0 0 -1 -1 0 -1 0 0 0 0 0 0 0 0 0 0 0 0 0 0
-2 0 0 0 0 -1 0 0 0 0 -1 -2 0 -1 -2 0 0 0 0 0 0 0 0 0 0 0 0
0 0 0 0 0 0 0 0 0 0 0 -1 0 0 0 0 -4 0 0 0 0 0 0 0 0 0 0
0 0 0 0 0 0 0 0 0 -1 -1 0 0 -1 0 0 0 0 0 0 0 0 0 0 0 0 0
0 0 0 0 0 0 0 0 0 0 0 0 0 0 -2 0 0 0 0 0 0 0 0 0 0 0 0
0 0 0 0 0 0 0 0 0 0 0 0 0 -2 0 0 -1 0 0 0 0 0 0 0 0 0 0
0 0 0 0 0 0 0 0 0 -3 0 0 0 0 0 -3 0 0 0 0 0 0 0 0 0 0 0
Wind_Speed
54 52 52 51 50 48 49 51 51 53 53 55 56 54 52 49 45 43 42 40 35 30 30 30 26 26 22
54 53 53 50 50 52 51 51 53 55 56 55 56 56 55 53 49 46 44 40 35 33 32 30 27 24 22
56 51 52 50 51 51 51 49 48 49 50 52 53 54 53 52 51 48 45 40 34 31 30 29 26 25 22
52 51 50 48 48 49 49 47 47 45 47 49 52 54 56 56 52 49 45 41 35 30 28 25 25 24 23
49 49 49 48 48 46 49 48 48 46 48 49 50 51 51 52 51 48 45 42 36 33 30 27 25 26 25
43 47 47 45 44 45 46 47 49 40 44 44 43 48 48 49 50 48 45 43 37 34 31 28 26 23 23
40 40 42 38 40 44 44 46 47 44 43 46 40 46 45 43 47 46 45 43 38 33 30 28 25 23 22
41 40 38 37 34 38 40 42 43 43 41 48 42 42 40 41 42 44 43 41 37 33 29 26 24 22 21
39 42 37 36 36 35 41 42 44 42 39 43 42 41 40 40 38 41 41 38 37 32 28 25 23 20 20
34 38 39 38 35 35 33 40 41 41 37 39 39 37 39 36 36 36 37 38 33 30 27 25 21 20 18
24 31 32 33 34 33 34 33 36 38 32 30 32 38 38 36 35 34 34 34 33 30 23 21 20 18 17
19 22 28 30 30 32 36 35 33 31 27 34 33 30 35 37 35 33 31 31 31 28 25 19 16 13 14
16 17 19 25 27 29 33 35 37 36 34 34 35 35 34 34 35 32 32 27 27 28 24 20 17 13 11
13 17 17 21 25 27 30 31 36 37 35 39 36 35 35 34 36 31 29 30 26 30 20 17 14 12 10
7 10 11 14 22 24 26 30 34 33 35 38 37 36 34 35 32 32 29 27 26 24 22 19 16 11 8
4 4 6 11 23 25 28 32 32 30 31 32 34 34 32 30 30 30 28 28 31 27 22 21 14 8 5
12 5 6 10 17 23 26 29 30 28 31 33 38 39 39 36 28 27 28 27 25 21 18 15 13 9 4
Wind_Direction
277 276 275 274 272 271 271 269 265 264 263 262 261 261 262 263 266 268 267 263 263 263 264 267 269 267 267
276 274 273 272 272 269 269 268 266 264 262 262 259 259 260 261 262 264 265 264 261 260 263 266 267 264 263
276 275 273 272 270 268 267 267 266 264 262 260 260 258 259 259 259 261 261 261 259 259 261 262 261 263 260
276 275 272 271 269 267 265 264 264 265 263 261 260 259 257 255 257 257 258 256 255 254 257 258 258 258 259
275 273 270 268 266 266 264 264 263 264 263 261 259 257 255 253 252 253 255 254 251 250 253 256 257 259 260
276 271 269 269 268 266 263 261 259 262 260 258 259 255 255 252 249 250 252 250 246 248 251 253 254 254 256
271 271 270 270 269 265 263 260 257 259 260 258 260 255 255 254 248 247 248 247 243 244 247 248 249 250 252
272 270 267 265 265 265 263 261 259 257 257 255 257 255 255 253 249 245 245 243 238 239 241 242 244 246 250
270 269 268 263 262 265 259 257 255 255 255 251 252 254 253 250 250 245 241 239 235 232 235 236 238 242 249
268 267 265 260 257 258 261 254 253 254 254 247 250 250 249 248 247 246 241 236 231 228 228 229 229 238 244
261 265 263 261 258 253 254 255 251 249 252 245 250 245 243 248 245 243 238 239 232 225 215 217 222 227 234
255 257 258 258 258 255 251 252 252 250 254 248 247 246 242 242 242 239 237 240 226 225 209 207 213 217 230
227 248 250 257 260 254 251 250 249 249 249 247 245 245 244 242 240 235 227 232 223 219 210 213 218 216 209
245 250 251 258 255 251 248 247 243 243 245 244 243 240 240 241 237 231 225 223 222 221 207 208 208 208 209
243 237 238 249 247 246 246 240 237 239 240 240 240 236 236 235 233 229 223 221 216 213 194 196 201 200 193
144 197 189 237 240 240 239 233 235 238 237 236 231 227 228 229 229 221 215 210 205 207 203 188 197 212 216
137 179 212 241 241 239 237 233 234 238 237 234 224 220 217 217 219 219 209 203 198 200 203 194 189 207 195